Time,TemperatureF,DewpointF,PressureIn,WindDirection,WindDirectionDegrees,WindSpeedMPH,WindSpeedGustMPH,Humidity,HourlyPrecipIn,Conditions,Clouds,dailyrainin,SoftwareType,DateUTC
2013-02-11 00:01:00,49.6,45.3,29.44,SSW,193,7.0,21.0,85,0.00,,OVC028,0.00,VWS V14.01,2013-02-11 05:01:00,
2013-02-11 00:05:00,49.5,45.2,29.44,South,175,14.0,19.0,85,0.00,,OVC028,0.00,VWS V14.01,2013-02-11 05:05:00,
2013-02-11 00:12:00,49.5,45.2,29.44,SSW,196,13.0,19.0,85,0.00,,OVC028,0.00,VWS V14.01,2013-02-11 05:12:00,
2013-02-11 00:20:00,49.4,45.1,29.43,South,176,11.0,21.0,85,0.00,,OVC028,0.00,VWS V14.01,2013-02-11 05:20:00,
2013-02-11 00:25:00,49.4,45.1,29.43,SSE,152,6.0,20.0,85,0.00,,OVC028,0.00,VWS V14.01,2013-02-11 05:25:00,
2013-02-11 00:30:00,49.2,44.9,29.43,SSE,151,10.0,17.0,85,0.00,,OVC028,0.00,VWS V14.01,2013-02-11 05:30:00,
2013-02-11 00:35:00,48.9,44.9,29.43,SSE,167,7.0,19.0,86,0.00,,OVC028,0.00,VWS V14.01,2013-02-11 05:35:00,
2013-02-11 00:41:00,48.9,44.9,29.43,South,181,8.0,16.0,86,0.00,,OVC028,0.00,VWS V14.01,2013-02-11 05:41:00,
2013-02-11 00:45:00,48.9,44.9,29.43,SSE,152,9.0,16.0,86,0.00,,OVC028,0.00,VWS V14.01,2013-02-11 05:45:00,
2013-02-11 00:50:00,48.9,44.9,29.43,South,179,11.0,26.0,86,0.00,,OVC028,0.00,VWS V14.01,2013-02-11 05:50:00,
2013-02-11 01:01:00,48.6,44.6,29.43,SSW,208,10.0,18.0,86,0.00,,OVC037,0.00,VWS V14.01,2013-02-11 06:01:00,
2013-02-11 01:10:00,48.6,44.9,29.43,SSW,209,10.0,18.0,87,0.00,,OVC037,0.00,VWS V14.01,2013-02-11 06:10:00,
2013-02-11 01:15:00,48.5,44.8,29.43,SSE,148,11.0,17.0,87,0.00,,OVC037,0.00,VWS V14.01,2013-02-11 06:15:00,
2013-02-11 01:20:00,48.5,44.8,29.43,SSE,155,11.0,19.0,87,0.00,,OVC037,0.00,VWS V14.01,2013-02-11 06:20:00,
2013-02-11 01:25:00,48.3,44.6,29.43,SSW,210,14.0,17.0,87,0.00,,OVC037,0.00,VWS V14.01,2013-02-11 06:25:00,
2013-02-11 01:30:00,48.3,44.6,29.42,SSE,160,10.0,16.0,87,0.00,,OVC037,0.00,VWS V14.01,2013-02-11 06:30:00,
2013-02-11 01:35:00,48.2,44.5,29.42,SSW,193,10.0,16.0,87,0.00,,OVC037,0.00,VWS V14.01,2013-02-11 06:35:00,
2013-02-11 01:40:00,48.0,44.3,29.42,SSE,158,4.0,15.0,87,0.00,,OVC037,0.00,VWS V14.01,2013-02-11 06:40:00,
2013-02-11 01:45:00,47.9,44.2,29.42,SSW,203,14.0,14.0,87,0.00,,OVC037,0.00,VWS V14.01,2013-02-11 06:45:00,
2013-02-11 01:50:00,47.9,44.2,29.42,South,186,6.0,17.0,87,0.00,,OVC037,0.00,VWS V14.01,2013-02-11 06:50:00,
2013-02-11 02:01:00,47.7,44.0,29.43,South,182,10.0,19.0,87,0.00,,OVC047,0.00,VWS V14.01,2013-02-11 07:01:00,
2013-02-11 02:10:00,47.7,44.0,29.43,SSW,205,8.0,15.0,87,0.00,,OVC047,0.00,VWS V14.01,2013-02-11 07:10:00,
2013-02-11 02:15:00,47.7,43.7,29.43,SSW,200,11.0,16.0,86,0.00,,OVC047,0.00,VWS V14.01,2013-02-11 07:15:00,
2013-02-11 02:20:00,47.9,43.9,29.43,SSW,193,11.0,16.0,86,0.00,,OVC047,0.00,VWS V14.01,2013-02-11 07:20:00,
2013-02-11 02:25:00,48.2,43.9,29.43,SSW,210,8.0,13.0,85,0.00,,OVC047,0.00,VWS V14.01,2013-02-11 07:25:00,
2013-02-11 02:30:00,48.2,43.6,29.42,SSW,210,14.0,16.0,84,0.00,,OVC047,0.00,VWS V14.01,2013-02-11 07:30:00,
2013-02-11 02:35:00,48.5,43.6,29.42,SW,220,11.0,18.0,83,0.00,,OVC047,0.00,VWS V14.01,2013-02-11 07:35:00,
2013-02-11 02:40:00,48.5,43.3,29.42,SW,224,10.0,18.0,82,0.01,,OVC047,0.01,VWS V14.01,2013-02-11 07:40:00,
2013-02-11 02:45:00,48.5,43.3,29.43,SW,234,12.0,16.0,82,0.01,,OVC047,0.01,VWS V14.01,2013-02-11 07:45:00,
2013-02-11 02:50:00,48.5,42.6,29.43,WSW,237,12.0,25.0,80,0.01,,OVC047,0.01,VWS V14.01,2013-02-11 07:50:00,
2013-02-11 02:55:00,48.9,41.3,29.43,SSW,213,12.0,29.0,75,0.01,,OVC047,0.01,VWS V14.01,2013-02-11 07:55:00,
2013-02-11 03:01:00,48.6,40.7,29.43,SW,232,18.0,28.0,74,0.01,,OVC070,0.01,VWS V14.01,2013-02-11 08:01:00,
2013-02-11 03:06:00,48.0,39.4,29.43,SW,230,13.0,27.0,72,0.01,,OVC070,0.01,VWS V14.01,2013-02-11 08:06:00,
2013-02-11 03:16:00,47.6,38.3,29.44,SW,222,17.0,22.0,70,0.01,,OVC070,0.01,VWS V14.01,2013-02-11 08:16:00,
2013-02-11 03:20:00,47.4,37.8,29.44,West,261,17.0,21.0,69,0.01,,OVC070,0.01,VWS V14.01,2013-02-11 08:20:00,
2013-02-11 03:30:00,46.7,37.5,29.44,SW,217,16.0,21.0,70,0.01,,OVC070,0.01,VWS V14.01,2013-02-11 08:30:00,
2013-02-11 03:40:00,46.1,37.2,29.44,SSW,202,8.0,16.0,71,0.01,,OVC070,0.01,VWS V14.01,2013-02-11 08:40:00,
2013-02-11 03:45:00,45.7,37.2,29.44,SW,223,11.0,18.0,72,0.00,,OVC070,0.01,VWS V14.01,2013-02-11 08:45:00,
2013-02-11 03:50:00,45.2,36.7,29.44,SW,227,18.0,19.0,72,0.00,,OVC070,0.01,VWS V14.01,2013-02-11 08:50:00,
2013-02-11 03:55:00,45.2,36.4,29.44,South,175,17.0,26.0,71,0.00,,OVC070,0.01,VWS V14.01,2013-02-11 08:55:00,
2013-02-11 04:00:00,45.1,35.2,29.45,SW,220,18.0,28.0,68,0.01,,CLR,0.02,VWS V14.01,2013-02-11 09:00:00,
2013-02-11 04:05:00,44.6,34.3,29.45,WSW,247,24.0,33.0,67,0.01,,CLR,0.02,VWS V14.01,2013-02-11 09:05:00,
2013-02-11 04:15:00,43.8,32.8,29.46,SW,226,26.0,35.0,65,0.01,,CLR,0.02,VWS V14.01,2013-02-11 09:15:00,
2013-02-11 04:20:00,43.1,31.0,29.46,SSW,209,18.0,42.0,62,0.01,,CLR,0.02,VWS V14.01,2013-02-11 09:20:00,
2013-02-11 04:25:00,42.6,30.5,29.46,WSW,246,18.0,36.0,62,0.01,,CLR,0.02,VWS V14.01,2013-02-11 09:25:00,
2013-02-11 04:30:00,42.3,29.8,29.47,West,261,21.0,33.0,61,0.01,,CLR,0.02,VWS V14.01,2013-02-11 09:30:00,
2013-02-11 04:35:00,41.9,29.9,29.47,West,260,28.0,33.0,62,0.01,,CLR,0.02,VWS V14.01,2013-02-11 09:35:00,
2013-02-11 04:40:00,41.6,29.6,29.47,West,272,22.0,32.0,62,0.01,,CLR,0.02,VWS V14.01,2013-02-11 09:40:00,
2013-02-11 04:50:00,41.2,30.0,29.48,SW,217,16.0,29.0,64,0.01,,CLR,0.02,VWS V14.01,2013-02-11 09:50:00,
2013-02-11 04:55:00,41.1,30.2,29.48,SW,232,25.0,33.0,65,0.01,,CLR,0.02,VWS V14.01,2013-02-11 09:55:00,
2013-02-11 05:05:00,40.9,30.1,29.48,WSW,243,15.0,30.0,65,0.00,,OVC060,0.02,VWS V14.01,2013-02-11 10:05:00,
2013-02-11 05:10:00,40.6,30.1,29.48,SW,217,14.0,28.0,66,0.00,,OVC060,0.02,VWS V14.01,2013-02-11 10:10:00,
2013-02-11 05:16:00,40.5,30.0,29.48,SW,219,19.0,26.0,66,0.00,,OVC060,0.02,VWS V14.01,2013-02-11 10:16:00,
2013-02-11 05:21:00,40.5,29.7,29.48,South,185,13.0,31.0,65,0.00,,OVC060,0.02,VWS V14.01,2013-02-11 10:21:00,
2013-02-11 05:26:00,40.3,29.5,29.48,SW,215,15.0,30.0,65,0.00,,OVC060,0.02,VWS V14.01,2013-02-11 10:26:00,
2013-02-11 05:35:00,40.2,29.4,29.48,SW,233,19.0,25.0,65,0.00,,OVC060,0.02,VWS V14.01,2013-02-11 10:35:00,
2013-02-11 05:41:00,40.2,29.0,29.48,SW,227,28.0,33.0,64,0.00,,OVC060,0.02,VWS V14.01,2013-02-11 10:41:00,
2013-02-11 05:50:00,39.9,29.1,29.49,West,268,26.0,29.0,65,0.00,,OVC060,0.02,VWS V14.01,2013-02-11 10:50:00,
2013-02-11 05:55:00,40.1,29.3,29.49,SW,227,18.0,36.0,65,0.00,,OVC060,0.02,VWS V14.01,2013-02-11 10:55:00,
2013-02-11 06:00:00,39.8,29.0,29.49,SW,227,27.0,36.0,65,0.00,,OVC048,0.02,VWS V14.01,2013-02-11 11:00:00,
2013-02-11 06:05:00,39.5,28.7,29.49,WSW,247,31.0,31.0,65,0.00,,OVC048,0.02,VWS V14.01,2013-02-11 11:05:00,
2013-02-11 06:10:00,39.3,28.5,29.49,SW,229,30.0,31.0,65,0.00,,OVC048,0.02,VWS V14.01,2013-02-11 11:10:00,
2013-02-11 06:15:00,39.2,28.8,29.50,SW,222,13.0,32.0,66,0.00,,OVC048,0.02,VWS V14.01,2013-02-11 11:15:00,
2013-02-11 06:20:00,38.9,29.2,29.50,WSW,253,18.0,29.0,68,0.00,,OVC048,0.02,VWS V14.01,2013-02-11 11:20:00,
2013-02-11 06:30:00,38.5,28.9,29.51,SSW,205,14.0,31.0,68,0.00,,OVC048,0.02,VWS V14.01,2013-02-11 11:30:00,
2013-02-11 06:40:00,37.6,26.5,29.51,WSW,241,28.0,40.0,64,0.00,,OVC048,0.02,VWS V14.01,2013-02-11 11:40:00,
2013-02-11 06:45:00,37.3,25.9,29.52,SW,230,16.0,41.0,63,0.00,,OVC048,0.02,VWS V14.01,2013-02-11 11:45:00,
2013-02-11 06:50:00,37.0,25.6,29.52,WSW,251,21.0,31.0,63,0.00,,OVC048,0.02,VWS V14.01,2013-02-11 11:50:00,
2013-02-11 06:55:00,36.9,25.5,29.52,SW,220,18.0,35.0,63,0.00,,OVC048,0.02,VWS V14.01,2013-02-11 11:55:00,
2013-02-11 07:00:00,36.6,26.0,29.53,South,188,24.0,26.0,65,0.00,,OVC048,0.02,VWS V14.01,2013-02-11 12:00:00,
2013-02-11 07:05:00,36.5,25.9,29.53,West,265,21.0,28.0,65,0.00,,OVC048,0.02,VWS V14.01,2013-02-11 12:05:00,
2013-02-11 07:10:00,36.5,25.1,29.53,WSW,251,27.0,31.0,63,0.00,,OVC048,0.02,VWS V14.01,2013-02-11 12:10:00,
2013-02-11 07:16:00,36.5,25.1,29.53,South,186,17.0,35.0,63,0.00,,OVC048,0.02,VWS V14.01,2013-02-11 12:16:00,
2013-02-11 07:21:00,36.2,25.2,29.53,WSW,244,25.0,32.0,64,0.00,,OVC048,0.02,VWS V14.01,2013-02-11 12:21:00,
2013-02-11 07:26:00,36.0,25.4,29.53,SW,224,16.0,28.0,65,0.00,,OVC048,0.02,VWS V14.01,2013-02-11 12:26:00,
2013-02-11 07:31:00,36.0,25.4,29.54,SW,227,25.0,28.0,65,0.00,,OVC048,0.02,VWS V14.01,2013-02-11 12:31:00,
2013-02-11 07:40:00,35.8,25.6,29.54,SSW,200,34.0,36.0,66,0.00,,OVC048,0.02,VWS V14.01,2013-02-11 12:40:00,
2013-02-11 07:46:00,35.8,25.6,29.54,WSW,241,18.0,38.0,66,0.00,,OVC048,0.02,VWS V14.01,2013-02-11 12:46:00,
2013-02-11 07:51:00,35.6,25.7,29.54,SW,234,20.0,28.0,67,0.00,,OVC048,0.02,VWS V14.01,2013-02-11 12:51:00,
2013-02-11 08:01:00,35.5,26.0,29.55,SW,222,12.0,26.0,68,0.00,,OVC032,0.02,VWS V14.01,2013-02-11 13:01:00,
2013-02-11 08:06:00,35.2,26.1,29.55,SW,224,17.0,29.0,69,0.00,,OVC032,0.02,VWS V14.01,2013-02-11 13:06:00,
2013-02-11 08:11:00,35.2,25.7,29.55,SW,215,19.0,30.0,68,0.00,,OVC032,0.02,VWS V14.01,2013-02-11 13:11:00,
2013-02-11 08:20:00,35.0,25.9,29.56,SW,224,22.0,30.0,69,0.00,,OVC032,0.02,VWS V14.01,2013-02-11 13:20:00,
2013-02-11 08:26:00,34.9,24.7,29.56,WSW,243,18.0,34.0,66,0.00,,OVC032,0.02,VWS V14.01,2013-02-11 13:26:00,
2013-02-11 08:35:00,34.7,24.9,29.57,WSW,239,21.0,29.0,67,0.00,,OVC032,0.02,VWS V14.01,2013-02-11 13:35:00,
2013-02-11 08:40:00,34.6,24.8,29.57,SW,230,18.0,27.0,67,0.00,,OVC032,0.02,VWS V14.01,2013-02-11 13:40:00,
2013-02-11 08:45:00,34.4,24.6,29.58,WSW,253,16.0,36.0,67,0.00,,OVC032,0.02,VWS V14.01,2013-02-11 13:45:00,
2013-02-11 08:50:00,34.4,24.6,29.58,WSW,248,11.0,29.0,67,0.00,,OVC032,0.02,VWS V14.01,2013-02-11 13:50:00,
2013-02-11 08:55:00,34.4,24.6,29.58,SW,229,21.0,27.0,67,0.00,,OVC032,0.02,VWS V14.01,2013-02-11 13:55:00,
2013-02-11 09:01:00,34.3,24.5,29.58,SW,232,17.0,29.0,67,0.00,,OVC030,0.02,VWS V14.01,2013-02-11 14:01:00,
2013-02-11 09:10:00,34.3,24.5,29.58,WSW,240,5.0,28.0,67,0.00,,OVC030,0.02,VWS V14.01,2013-02-11 14:10:00,
2013-02-11 09:15:00,34.1,24.3,29.59,WSW,253,20.0,28.0,67,0.00,,OVC030,0.02,VWS V14.01,2013-02-11 14:15:00,
2013-02-11 09:20:00,34.1,24.7,29.59,WSW,241,17.0,30.0,68,0.00,,OVC030,0.02,VWS V14.01,2013-02-11 14:20:00,
2013-02-11 09:25:00,34.1,24.7,29.59,WSW,237,17.0,24.0,68,0.00,,OVC030,0.02,VWS V14.01,2013-02-11 14:25:00,
2013-02-11 09:30:00,34.1,25.0,29.59,West,260,21.0,21.0,69,0.00,,OVC030,0.02,VWS V14.01,2013-02-11 14:30:00,
2013-02-11 09:35:00,34.1,25.0,29.59,SW,219,22.0,25.0,69,0.00,,OVC030,0.02,VWS V14.01,2013-02-11 14:35:00,
2013-02-11 09:40:00,34.1,25.0,29.59,SW,226,20.0,24.0,69,0.00,,OVC030,0.02,VWS V14.01,2013-02-11 14:40:00,
2013-02-11 09:45:00,34.1,25.0,29.60,SSW,213,16.0,29.0,69,0.00,,OVC030,0.02,VWS V14.01,2013-02-11 14:45:00,
2013-02-11 09:50:00,34.1,25.4,29.60,WSW,246,12.0,21.0,70,0.00,,OVC030,0.02,VWS V14.01,2013-02-11 14:50:00,
2013-02-11 09:55:00,34.1,25.4,29.60,SW,234,25.0,25.0,70,0.00,,OVC030,0.02,VWS V14.01,2013-02-11 14:55:00,
2013-02-11 10:05:00,34.1,25.4,29.60,SW,223,14.0,22.0,70,0.00,,OVC036,0.02,VWS V14.01,2013-02-11 15:05:00,
2013-02-11 10:10:00,34.0,25.3,29.60,WSW,237,10.0,20.0,70,0.00,,OVC036,0.02,VWS V14.01,2013-02-11 15:10:00,
2013-02-11 10:15:00,34.0,25.3,29.61,WSW,258,13.0,28.0,70,0.00,,OVC036,0.02,VWS V14.01,2013-02-11 15:15:00,
2013-02-11 10:20:00,34.0,24.9,29.61,WSW,243,14.0,25.0,69,0.00,,OVC036,0.02,VWS V14.01,2013-02-11 15:20:00,
2013-02-11 10:25:00,34.0,24.6,29.61,WSW,240,19.0,27.0,68,0.00,,OVC036,0.02,VWS V14.01,2013-02-11 15:25:00,
2013-02-11 10:30:00,34.0,23.1,29.61,SW,227,20.0,28.0,64,0.00,,OVC036,0.02,VWS V14.01,2013-02-11 15:30:00,
2013-02-11 10:36:00,34.1,22.5,29.61,West,274,17.0,29.0,62,0.00,,OVC036,0.02,VWS V14.01,2013-02-11 15:36:00,
2013-02-11 10:45:00,34.0,22.4,29.61,West,271,13.0,28.0,62,0.00,,OVC036,0.02,VWS V14.01,2013-02-11 15:45:00,
2013-02-11 10:51:00,34.0,22.7,29.61,WSW,256,24.0,28.0,63,0.00,,OVC036,0.02,VWS V14.01,2013-02-11 15:51:00,
2013-02-11 11:00:00,33.8,23.7,29.61,WSW,244,20.0,28.0,66,0.00,,OVC032,0.02,VWS V14.01,2013-02-11 16:00:00,
2013-02-11 11:05:00,33.7,23.6,29.61,SW,234,24.0,26.0,66,0.00,,OVC032,0.02,VWS V14.01,2013-02-11 16:05:00,
2013-02-11 11:10:00,33.8,23.3,29.61,WSW,254,24.0,36.0,65,0.00,,OVC032,0.02,VWS V14.01,2013-02-11 16:10:00,
2013-02-11 11:15:00,33.8,23.3,29.62,SSW,210,16.0,28.0,65,0.00,,OVC032,0.02,VWS V14.01,2013-02-11 16:15:00,
2013-02-11 11:21:00,33.8,23.3,29.62,West,274,27.0,27.0,65,0.00,,OVC032,0.02,VWS V14.01,2013-02-11 16:21:00,
2013-02-11 11:30:00,34.0,22.7,29.63,SW,224,21.0,37.0,63,0.00,,OVC032,0.02,VWS V14.01,2013-02-11 16:30:00,
2013-02-11 11:35:00,34.0,22.7,29.63,West,268,33.0,33.0,63,0.00,,OVC032,0.02,VWS V14.01,2013-02-11 16:35:00,
2013-02-11 11:40:00,34.0,22.4,29.63,West,281,21.0,33.0,62,0.00,,OVC032,0.02,VWS V14.01,2013-02-11 16:40:00,
2013-02-11 11:45:00,33.8,22.2,29.64,WSW,253,21.0,37.0,62,0.00,,OVC032,0.02,VWS V14.01,2013-02-11 16:45:00,
2013-02-11 11:50:00,33.8,22.9,29.64,WSW,248,11.0,28.0,64,0.00,,OVC032,0.02,VWS V14.01,2013-02-11 16:50:00,
2013-02-11 11:55:00,33.7,23.9,29.64,SSW,203,17.0,31.0,67,0.00,,OVC032,0.02,VWS V14.01,2013-02-11 16:55:00,
2013-02-11 12:01:00,33.4,24.0,29.64,WSW,254,17.0,28.0,68,0.00,,OVC029,0.02,VWS V14.01,2013-02-11 17:01:00,
2013-02-11 12:10:00,33.5,24.1,29.64,SW,217,16.0,26.0,68,0.00,,OVC029,0.02,VWS V14.01,2013-02-11 17:10:00,
2013-02-11 12:15:00,33.4,24.0,29.64,SSW,202,12.0,35.0,68,0.00,,OVC029,0.02,VWS V14.01,2013-02-11 17:15:00,
2013-02-11 12:20:00,33.5,23.7,29.64,WSW,244,12.0,31.0,67,0.00,,OVC029,0.02,VWS V14.01,2013-02-11 17:20:00,
2013-02-11 12:25:00,33.5,23.4,29.64,West,267,26.0,42.0,66,0.00,,OVC029,0.02,VWS V14.01,2013-02-11 17:25:00,
2013-02-11 12:30:00,33.7,23.6,29.64,WSW,254,22.0,34.0,66,0.00,,OVC029,0.02,VWS V14.01,2013-02-11 17:30:00,
2013-02-11 12:36:00,33.7,23.2,29.64,WSW,250,28.0,43.0,65,0.00,,OVC029,0.02,VWS V14.01,2013-02-11 17:36:00,
2013-02-11 12:45:00,33.7,23.2,29.65,SW,226,28.0,44.0,65,0.00,,OVC029,0.02,VWS V14.01,2013-02-11 17:45:00,
2013-02-11 12:50:00,34.0,23.5,29.65,West,263,12.0,31.0,65,0.00,,OVC029,0.02,VWS V14.01,2013-02-11 17:50:00,
2013-02-11 12:55:00,34.0,23.5,29.65,West,263,20.0,31.0,65,0.00,,OVC029,0.02,VWS V14.01,2013-02-11 17:55:00,
2013-02-11 13:01:00,33.8,23.3,29.65,WSW,250,29.0,30.0,65,0.00,,OVC029,0.02,VWS V14.01,2013-02-11 18:01:00,
2013-02-11 13:11:00,33.8,23.7,29.65,SSW,198,31.0,35.0,66,0.00,,OVC029,0.02,VWS V14.01,2013-02-11 18:11:00,
2013-02-11 13:15:00,33.8,23.3,29.65,SW,224,32.0,34.0,65,0.00,,OVC029,0.02,VWS V14.01,2013-02-11 18:15:00,
2013-02-11 13:20:00,33.8,23.3,29.65,WSW,248,18.0,32.0,65,0.00,,OVC029,0.02,VWS V14.01,2013-02-11 18:20:00,
2013-02-11 13:25:00,33.8,23.3,29.65,WSW,251,25.0,31.0,65,0.00,,OVC029,0.02,VWS V14.01,2013-02-11 18:25:00,
2013-02-11 13:30:00,33.7,23.2,29.66,West,264,24.0,42.0,65,0.00,,OVC029,0.02,VWS V14.01,2013-02-11 18:30:00,
2013-02-11 13:40:00,33.7,23.9,29.66,SW,217,20.0,26.0,67,0.00,,OVC029,0.02,VWS V14.01,2013-02-11 18:40:00,
2013-02-11 13:45:00,33.8,24.0,29.66,SW,223,27.0,31.0,67,0.00,,OVC029,0.02,VWS V14.01,2013-02-11 18:45:00,
2013-02-11 13:55:00,34.1,23.2,29.66,SW,234,30.0,31.0,64,0.00,,OVC029,0.02,VWS V14.01,2013-02-11 18:55:00,
2013-02-11 14:05:00,34.1,22.8,29.66,WSW,256,27.0,32.0,63,0.00,,,0.02,VWS V14.01,2013-02-11 19:05:00,
2013-02-11 14:10:00,34.0,22.4,29.66,WSW,250,31.0,37.0,62,0.00,,,0.02,VWS V14.01,2013-02-11 19:10:00,
2013-02-11 14:15:00,34.0,22.4,29.67,WSW,246,17.0,31.0,62,0.00,,,0.02,VWS V14.01,2013-02-11 19:15:00,
2013-02-11 14:20:00,34.0,22.7,29.67,WSW,247,25.0,32.0,63,0.00,,,0.02,VWS V14.01,2013-02-11 19:20:00,
2013-02-11 14:25:00,34.0,23.1,29.67,West,267,24.0,31.0,64,0.00,,,0.02,VWS V14.01,2013-02-11 19:25:00,
2013-02-11 14:31:00,33.8,22.5,29.67,WSW,258,22.0,33.0,63,0.00,,,0.02,VWS V14.01,2013-02-11 19:31:00,
2013-02-11 14:36:00,33.8,22.5,29.67,SW,215,30.0,35.0,63,0.00,,,0.02,VWS V14.01,2013-02-11 19:36:00,
2013-02-11 14:41:00,33.8,22.9,29.67,WSW,258,19.0,36.0,64,0.00,,,0.02,VWS V14.01,2013-02-11 19:41:00,
2013-02-11 14:46:00,33.8,22.9,29.67,SW,229,21.0,28.0,64,0.00,,,0.02,VWS V14.01,2013-02-11 19:46:00,
2013-02-11 14:56:00,33.8,22.5,29.67,West,261,10.0,29.0,63,0.00,,,0.02,VWS V14.01,2013-02-11 19:56:00,
2013-02-11 15:01:00,33.7,22.5,29.67,SSW,208,18.0,36.0,63,0.00,,OVC029,0.02,VWS V14.01,2013-02-11 20:01:00,
2013-02-11 15:06:00,33.8,22.9,29.67,WSW,251,25.0,30.0,64,0.00,,OVC029,0.02,VWS V14.01,2013-02-11 20:06:00,
2013-02-11 15:11:00,33.8,22.9,29.67,West,275,29.0,30.0,64,0.00,,OVC029,0.02,VWS V14.01,2013-02-11 20:11:00,
2013-02-11 15:16:00,33.7,22.8,29.69,South,189,13.0,36.0,64,0.00,,OVC029,0.02,VWS V14.01,2013-02-11 20:16:00,
2013-02-11 15:21:00,33.5,23.0,29.69,SSW,212,26.0,36.0,65,0.00,,OVC029,0.02,VWS V14.01,2013-02-11 20:21:00,
2013-02-11 15:31:00,33.5,23.4,29.69,SW,234,15.0,25.0,66,0.00,,OVC029,0.02,VWS V14.01,2013-02-11 20:31:00,
2013-02-11 15:36:00,33.4,23.3,29.69,WSW,248,19.0,28.0,66,0.00,,OVC029,0.02,VWS V14.01,2013-02-11 20:36:00,
2013-02-11 15:45:00,33.4,23.3,29.70,ESE,104,18.0,26.0,66,0.00,,OVC029,0.02,VWS V14.01,2013-02-11 20:45:00,
2013-02-11 15:50:00,33.2,23.1,29.70,WSW,247,21.0,31.0,66,0.00,,OVC029,0.02,VWS V14.01,2013-02-11 20:50:00,
2013-02-11 15:55:00,33.4,23.6,29.70,SSE,168,11.0,30.0,67,0.00,,OVC029,0.02,VWS V14.01,2013-02-11 20:55:00,
2013-02-11 16:00:00,33.2,23.5,29.71,WSW,250,15.0,28.0,67,0.00,,OVC027,0.02,VWS V14.01,2013-02-11 21:00:00,
2013-02-11 16:05:00,33.1,23.4,29.71,West,270,14.0,30.0,67,0.00,,OVC027,0.02,VWS V14.01,2013-02-11 21:05:00,
2013-02-11 16:10:00,33.1,23.4,29.71,West,263,30.0,31.0,67,0.00,,OVC027,0.02,VWS V14.01,2013-02-11 21:10:00,
2013-02-11 16:15:00,33.1,23.4,29.72,WSW,256,14.0,30.0,67,0.00,,OVC027,0.02,VWS V14.01,2013-02-11 21:15:00,
2013-02-11 16:20:00,32.9,23.2,29.72,SW,222,18.0,29.0,67,0.00,,OVC027,0.02,VWS V14.01,2013-02-11 21:20:00,
2013-02-11 16:25:00,33.1,23.4,29.72,SW,219,14.0,28.0,67,0.00,,OVC027,0.02,VWS V14.01,2013-02-11 21:25:00,
2013-02-11 16:31:00,33.1,23.4,29.72,West,260,20.0,25.0,67,0.00,,OVC027,0.02,VWS V14.01,2013-02-11 21:31:00,
2013-02-11 16:36:00,33.1,23.7,29.72,SW,215,16.0,29.0,68,0.00,,OVC027,0.02,VWS V14.01,2013-02-11 21:36:00,
2013-02-11 16:45:00,32.9,23.2,29.73,WSW,240,16.0,30.0,67,0.00,,OVC027,0.02,VWS V14.01,2013-02-11 21:45:00,
2013-02-11 16:51:00,32.9,23.2,29.73,NW,309,24.0,31.0,67,0.00,,OVC027,0.02,VWS V14.01,2013-02-11 21:51:00,
2013-02-11 16:56:00,33.1,23.4,29.73,WSW,244,28.0,28.0,67,0.00,,OVC027,0.02,VWS V14.01,2013-02-11 21:56:00,
2013-02-11 17:05:00,33.2,23.8,29.74,South,189,17.0,31.0,68,0.00,,OVC025,0.02,VWS V14.01,2013-02-11 22:05:00,
2013-02-11 17:11:00,33.1,23.7,29.74,WSW,244,12.0,24.0,68,0.00,,OVC025,0.02,VWS V14.01,2013-02-11 22:11:00,
2013-02-11 17:16:00,33.1,23.7,29.74,WSW,243,16.0,21.0,68,0.00,,OVC025,0.02,VWS V14.01,2013-02-11 22:16:00,
2013-02-11 17:21:00,32.9,23.9,29.74,SW,236,18.0,27.0,69,0.00,,OVC025,0.02,VWS V14.01,2013-02-11 22:21:00,
2013-02-11 17:26:00,32.8,23.8,29.74,WSW,240,17.0,27.0,69,0.00,,OVC025,0.02,VWS V14.01,2013-02-11 22:26:00,
2013-02-11 17:31:00,32.7,23.7,29.74,SW,234,11.0,35.0,69,0.00,,OVC025,0.02,VWS V14.01,2013-02-11 22:31:00,
2013-02-11 17:36:00,32.5,23.5,29.74,WNW,288,16.0,26.0,69,0.00,,OVC025,0.02,VWS V14.01,2013-02-11 22:36:00,
2013-02-11 17:45:00,32.4,23.0,29.75,WSW,257,18.0,28.0,68,0.00,,OVC025,0.02,VWS V14.01,2013-02-11 22:45:00,
2013-02-11 17:50:00,32.4,23.0,29.75,WSW,251,24.0,34.0,68,0.00,,OVC025,0.02,VWS V14.01,2013-02-11 22:50:00,
2013-02-11 17:55:00,32.4,22.7,29.75,SW,217,13.0,31.0,67,0.00,,OVC025,0.02,VWS V14.01,2013-02-11 22:55:00,
2013-02-11 18:01:00,32.4,22.7,29.76,SSW,209,13.0,24.0,67,0.00,,OVC031,0.02,VWS V14.01,2013-02-11 23:01:00,
2013-02-11 18:11:00,32.4,23.4,29.76,SW,234,12.0,26.0,69,0.00,,OVC031,0.02,VWS V14.01,2013-02-11 23:11:00,
2013-02-11 18:20:00,32.2,22.5,29.76,WSW,239,8.0,33.0,67,0.00,,OVC031,0.02,VWS V14.01,2013-02-11 23:20:00,
2013-02-11 18:25:00,32.2,22.5,29.76,SW,222,21.0,32.0,67,0.00,,OVC031,0.02,VWS V14.01,2013-02-11 23:25:00,
2013-02-11 18:30:00,32.2,22.1,29.77,WSW,240,25.0,31.0,66,0.00,,OVC031,0.02,VWS V14.01,2013-02-11 23:30:00,
2013-02-11 18:35:00,32.1,22.0,29.77,WSW,258,20.0,30.0,66,0.00,,OVC031,0.02,VWS V14.01,2013-02-11 23:35:00,
2013-02-11 18:40:00,32.1,22.0,29.77,WSW,246,14.0,25.0,66,0.00,,OVC031,0.02,VWS V14.01,2013-02-11 23:40:00,
2013-02-11 18:45:00,32.1,22.4,29.77,WSW,253,16.0,28.0,67,0.00,,OVC031,0.02,VWS V14.01,2013-02-11 23:45:00,
2013-02-11 18:50:00,32.1,22.8,29.77,WSW,253,10.0,21.0,68,0.00,,OVC031,0.02,VWS V14.01,2013-02-11 23:50:00,
2013-02-11 18:55:00,32.1,22.8,29.77,WSW,248,21.0,28.0,68,0.00,,OVC031,0.02,VWS V14.01,2013-02-11 23:55:00,
2013-02-11 19:01:00,32.1,22.8,29.78,SSW,206,11.0,29.0,68,0.00,,OVC036,0.02,VWS V14.01,2013-02-12 00:01:00,
2013-02-11 19:10:00,32.1,22.8,29.78,SW,216,17.0,30.0,68,0.00,,OVC036,0.02,VWS V14.01,2013-02-12 00:10:00,
2013-02-11 19:16:00,32.1,22.4,29.79,West,275,12.0,29.0,67,0.00,,OVC036,0.02,VWS V14.01,2013-02-12 00:16:00,
2013-02-11 19:26:00,31.9,22.2,29.79,WSW,256,16.0,32.0,67,0.00,,OVC036,0.02,VWS V14.01,2013-02-12 00:26:00,
2013-02-11 19:31:00,31.9,22.5,29.78,WSW,257,21.0,26.0,68,0.00,,OVC036,0.02,VWS V14.01,2013-02-12 00:31:00,
2013-02-11 19:36:00,31.9,22.5,29.78,South,188,13.0,27.0,68,0.00,,OVC036,0.02,VWS V14.01,2013-02-12 00:36:00,
2013-02-11 19:45:00,31.8,22.5,29.79,WSW,246,14.0,24.0,68,0.00,,OVC036,0.02,VWS V14.01,2013-02-12 00:45:00,
2013-02-11 19:50:00,31.8,22.5,29.79,SW,217,14.0,28.0,68,0.00,,OVC036,0.02,VWS V14.01,2013-02-12 00:50:00,
2013-02-11 19:55:00,31.8,22.1,29.79,West,264,15.0,21.0,67,0.00,,OVC036,0.02,VWS V14.01,2013-02-12 00:55:00,
2013-02-11 20:01:00,31.8,22.1,29.79,West,275,29.0,29.0,67,0.00,,OVC035,0.02,VWS V14.01,2013-02-12 01:01:00,
2013-02-11 20:10:00,31.6,21.6,29.79,West,263,14.0,28.0,66,0.00,,OVC035,0.02,VWS V14.01,2013-02-12 01:10:00,
2013-02-11 20:15:00,31.6,21.9,29.80,SW,219,11.0,22.0,67,0.00,,OVC035,0.02,VWS V14.01,2013-02-12 01:15:00,
2013-02-11 20:20:00,31.6,21.9,29.80,WSW,247,19.0,27.0,67,0.00,,OVC035,0.02,VWS V14.01,2013-02-12 01:20:00,
2013-02-11 20:25:00,31.6,21.9,29.80,SW,236,21.0,26.0,67,0.00,,OVC035,0.02,VWS V14.01,2013-02-12 01:25:00,
2013-02-11 20:31:00,31.6,22.3,29.81,West,281,19.0,26.0,68,0.00,,OVC035,0.02,VWS V14.01,2013-02-12 01:31:00,
2013-02-11 20:40:00,31.5,21.1,29.81,West,275,18.0,26.0,65,0.00,,OVC035,0.02,VWS V14.01,2013-02-12 01:40:00,
2013-02-11 20:45:00,31.5,21.1,29.81,West,263,14.0,24.0,65,0.00,,OVC035,0.02,VWS V14.01,2013-02-12 01:45:00,
2013-02-11 20:50:00,31.5,21.1,29.81,West,265,16.0,27.0,65,0.00,,OVC035,0.02,VWS V14.01,2013-02-12 01:50:00,
2013-02-11 20:55:00,31.5,21.1,29.81,West,275,12.0,25.0,65,0.00,,OVC035,0.02,VWS V14.01,2013-02-12 01:55:00,
2013-02-11 21:00:00,31.5,21.1,29.81,West,265,24.0,27.0,65,0.00,,OVC033,0.02,VWS V14.01,2013-02-12 02:00:00,
2013-02-11 21:05:00,31.5,21.1,29.81,West,263,28.0,28.0,65,0.00,,OVC033,0.02,VWS V14.01,2013-02-12 02:05:00,
2013-02-11 21:10:00,31.3,20.9,29.81,WSW,247,18.0,28.0,65,0.00,,OVC033,0.02,VWS V14.01,2013-02-12 02:10:00,
2013-02-11 21:15:00,31.3,21.3,29.81,West,261,16.0,27.0,66,0.00,,OVC033,0.02,VWS V14.01,2013-02-12 02:15:00,
2013-02-11 21:20:00,31.3,21.3,29.81,West,272,14.0,25.0,66,0.00,,OVC033,0.02,VWS V14.01,2013-02-12 02:20:00,
2013-02-11 21:25:00,31.3,21.3,29.81,West,271,18.0,26.0,66,0.00,,OVC033,0.02,VWS V14.01,2013-02-12 02:25:00,
2013-02-11 21:30:00,31.3,20.9,29.81,WNW,288,19.0,27.0,65,0.00,,OVC033,0.02,VWS V14.01,2013-02-12 02:30:00,
2013-02-11 21:35:00,31.3,20.9,29.81,WSW,257,20.0,28.0,65,0.00,,OVC033,0.02,VWS V14.01,2013-02-12 02:35:00,
2013-02-11 21:41:00,31.3,20.9,29.81,West,270,21.0,29.0,65,0.00,,OVC033,0.02,VWS V14.01,2013-02-12 02:41:00,
2013-02-11 21:50:00,31.2,20.8,29.82,West,278,28.0,30.0,65,0.00,,OVC033,0.02,VWS V14.01,2013-02-12 02:50:00,
2013-02-11 21:55:00,31.2,20.8,29.82,West,260,12.0,28.0,65,0.00,,OVC033,0.02,VWS V14.01,2013-02-12 02:55:00,
2013-02-11 22:01:00,31.2,21.2,29.82,WSW,257,15.0,20.0,66,0.00,,OVC025,0.02,VWS V14.01,2013-02-12 03:01:00,
2013-02-11 22:06:00,31.0,21.0,29.82,West,281,18.0,25.0,66,0.00,,OVC025,0.02,VWS V14.01,2013-02-12 03:06:00,
2013-02-11 22:15:00,31.0,21.3,29.82,West,263,17.0,19.0,67,0.00,,OVC025,0.02,VWS V14.01,2013-02-12 03:15:00,
2013-02-11 22:20:00,31.0,21.3,29.82,West,260,11.0,20.0,67,0.00,,OVC025,0.02,VWS V14.01,2013-02-12 03:20:00,
2013-02-11 22:26:00,31.0,21.3,29.82,West,263,20.0,24.0,67,0.00,,OVC025,0.02,VWS V14.01,2013-02-12 03:26:00,
2013-02-11 22:31:00,31.0,21.3,29.82,West,278,19.0,27.0,67,0.00,,OVC025,0.02,VWS V14.01,2013-02-12 03:31:00,
2013-02-11 22:40:00,31.0,20.6,29.82,WSW,257,27.0,27.0,65,0.00,,OVC025,0.02,VWS V14.01,2013-02-12 03:40:00,
2013-02-11 22:46:00,30.9,20.5,29.83,West,278,21.0,27.0,65,0.00,,OVC025,0.02,VWS V14.01,2013-02-12 03:46:00,
2013-02-11 22:55:00,30.9,20.9,29.83,West,263,13.0,25.0,66,0.00,,OVC025,0.02,VWS V14.01,2013-02-12 03:55:00,
2013-02-11 23:01:00,30.9,20.9,29.84,West,260,11.0,21.0,66,0.00,,OVC032,0.02,VWS V14.01,2013-02-12 04:01:00,
2013-02-11 23:06:00,30.7,20.7,29.84,West,280,21.0,21.0,66,0.00,,OVC032,0.02,VWS V14.01,2013-02-12 04:06:00,
2013-02-11 23:11:00,30.7,20.3,29.84,West,275,27.0,31.0,65,0.00,,OVC032,0.02,VWS V14.01,2013-02-12 04:11:00,
2013-02-11 23:15:00,30.6,20.2,29.84,SW,219,17.0,31.0,65,0.00,,OVC032,0.02,VWS V14.01,2013-02-12 04:15:00,
2013-02-11 23:20:00,30.4,20.1,29.84,West,270,17.0,24.0,65,0.00,,OVC032,0.02,VWS V14.01,2013-02-12 04:20:00,
2013-02-11 23:25:00,30.4,20.1,29.84,West,271,20.0,26.0,65,0.00,,OVC032,0.02,VWS V14.01,2013-02-12 04:25:00,
2013-02-11 23:30:00,30.4,20.1,29.84,West,270,11.0,24.0,65,0.00,,OVC032,0.02,VWS V14.01,2013-02-12 04:30:00,
2013-02-11 23:35:00,30.4,20.4,29.84,West,272,13.0,20.0,66,0.00,,OVC032,0.02,VWS V14.01,2013-02-12 04:35:00,
2013-02-11 23:40:00,30.4,20.4,29.84,West,267,11.0,22.0,66,0.00,,OVC032,0.02,VWS V14.01,2013-02-12 04:40:00,
2013-02-11 23:45:00,30.4,20.4,29.84,West,260,12.0,22.0,66,0.00,,OVC032,0.02,VWS V14.01,2013-02-12 04:45:00,
2013-02-11 23:50:00,30.4,20.8,29.84,WNW,285,20.0,25.0,67,0.00,,OVC032,0.02,VWS V14.01,2013-02-12 04:50:00,
2013-02-11 23:55:00,30.4,21.1,29.84,West,268,11.0,20.0,68,0.00,,OVC032,0.02,VWS V14.01,2013-02-12 04:55:00,